Location: Chimay
(50.0486°N, 4.3171°E)
Time: 17:52:20
(UTC+00:00)

Cosmos 1437 Rocket - Pass Details

Date: 08 August 2020
Orbit: 505 x 563 km, 81.2° (Epoch: 24 September)

Event Time Altitude Azimuth Distance (km) Brightness Sun altitude
Rises 22:03:05 0° 343° (NNW) 2,647 7.8 -20.2°
Reaches altitude 10° 22:05:17 10° 337° (NNW) 1,748 6.6 -20.4°
Maximum altitude 22:08:58 47° 264° (W) 685 3.3 -20.6°
Enters shadow 22:09:41 41° 229° (SW) 753 3.3 -20.7°
